[[{"header":{"parameterUnit":"m.s-1","parameterCategory":1,"la1":30.2991,"la2":30.254,"lo1":-89.0895,"lo2":-89.0444,"dy":0.0017,"dx":0.0017,"nx":28,"ny":28,"refTime":"2023-07-27T09:00:00:Z","depth":0,"parameterNumber":2,"parameterNumberName":"U-component_of_WINDS"},"data":[0,0,0,0,0,0,0,0,0,0,0,0,0,0,0,0,0,0,0,0,0,0,0,0,0,0,0,0,0,0,0,0,0,0,0,0,0,0,0,0,0,0,0,0,0,0,0,0,0,0,0,0,0,0,0,0,0,0,-0.5885,-0.5885,0,-0.583,-0.5829,-0.5829,-0.5788,-0.5787,-0.5787,-0.5786,-0.573,-0.5729,-0.5727,0,0,0,0,0,0,0,0,0,0,0,0,0,-0.5956,-0.5955,-0.5885,-0.5885,-0.5884,-0.583,-0.5829,-0.5829,-0.5788,-0.5787,-0.5787,-0.5786,-0.573,-0.5729,-0.5727,0,0,0,0,0,0,0,0,0,0,0,0,0,-0.5916,-0.5955,-0.5886,-0.5857,-0.5854,-0.583,-0.5829,-0.5828,-0.5788,-0.5787,-0.5787,-0.5786,-0.5731,-0.5729,-0.5727,-0.5727,0,0,-0.5722,-0.5721,0,0,0,0,0,0,0,0,-0.5918,-0.5913,-0.5862,-0.5859,-0.5855,-0.5815,-0.5833,-0.5795,-0.5788,-0.5813,-0.5786,-0.5786,-0.5759,-0.5754,-0.5745,-0.5725,-0.5722,-0.5722,-0.572,-0.572,-0.5719,0,0,0,0,0,0,0,-0.5921,-0.5915,-0.5864,-0.5861,-0.5857,-0.5847,-0.5841,-0.5826,-0.5789,-0.5811,-0.5808,-0.5802,-0.5757,-0.5747,-0.5744,-0.5721,-0.5722,-0.572,-0.5719,-0.5718,-0.5699,-0.5699,0,0,0,0,0,0,-0.5928,-0.5918,-0.5865,-0.5862,-0.5886,-0.5846,-0.5839,-0.5829,-0.579,-0.5783,-0.5802,-0.58,-0.575,-0.5746,-0.5742,-0.5739,-0.572,-0.5718,-0.5717,-0.5698,-0.5699,-0.5699,0,0,0,0,0,0,-0.593,-0.5924,-0.5867,-0.5889,-0.5881,-0.5846,-0.5834,-0.5828,-0.5818,-0.5783,-0.5776,-0.5799,-0.575,-0.5744,-0.5731,-0.5737,-0.5717,-0.5716,-0.5698,-0.5698,-0.5699,-0.5736,0,0,0,0,0,0,-0.5932,-0.5925,-0.5924,-0.5889,-0.588,-0.5858,-0.5835,-0.5827,-0.5815,-0.5812,-0.5778,-0.5772,-0.5749,-0.5734,-0.573,-0.5734,-0.5714,-0.5697,-0.5698,-0.5699,-0.5734,-0.5737,-0.5741,0,0,0,0,0,-0.5935,-0.5936,-0.5924,-0.5918,-0.5879,-0.5859,-0.5853,-0.5826,-0.5816,-0.5815,-0.5793,-0.5773,-0.5737,-0.5733,-0.5728,-0.5732,-0.5696,-0.5698,-0.5699,-0.5732,-0.5737,-0.5741,0,0,0,0,0,0,-0.5973,-0.5931,-0.5917,-0.5908,-0.5887,-0.5852,-0.585,-0.5832,-0.5814,-0.5811,-0.5779,-0.5772,-0.5762,-0.5746,-0.5742,-0.573,-0.5714,-0.5714,-0.5742,-0.5746,-0.5749,-0.5753,-0.5713,0,0,0,0,0,-0.598,-0.5967,-0.5932,-0.5927,-0.5917,-0.5886,-0.5876,-0.5857,-0.5834,-0.5825,-0.5801,-0.578,-0.5764,-0.5754,-0.5737,-0.5731,-0.5723,-0.5731,-0.5735,-0.5738,-0.5739,-0.5735,-0.5738,-0.5703,-0.5703,-0.5703,0,0,-0.5995,-0.5971,-0.5965,-0.5934,-0.5916,-0.5903,-0.5878,-0.5866,-0.5857,-0.5823,-0.581,-0.5792,-0.5766,-0.5757,-0.5752,-0.5743,-0.5746,-0.5739,-0.5742,-0.5741,-0.5736,-0.574,-0.5743,-0.5704,-0.5704,-0.5704,0,0,-0.6016,-0.5997,-0.5991,-0.5973,-0.5945,-0.5924,-0.5923,-0.589,-0.5877,-0.5864,-0.5838,-0.5827,-0.5799,-0.5782,-0.5769,-0.5785,-0.5766,-0.578,-0.5799,-0.5795,-0.5798,-0.58,-0.5806,-0.5809,-0.5781,-0.5781,-0.5781,0,-0.6039,-0.6019,-0.599,-0.5979,-0.5967,-0.5936,-0.593,-0.5914,-0.5883,-0.5875,-0.5865,-0.5831,-0.5811,-0.5798,-0.5801,-0.5792,-0.579,-0.5784,-0.58,-0.5802,-0.5804,-0.5809,-0.5811,-0.5783,-0.5783,-0.5782,-0.5782,0,-0.6048,-0.6034,-0.6033,-0.6003,-0.5991,-0.5982,-0.5953,-0.5943,-0.5926,-0.5906,-0.5893,-0.5868,-0.5846,-0.5841,-0.5824,-0.5825,-0.5821,-0.5806,-0.5789,-0.5809,-0.5814,-0.5816,-0.5785,-0.5785,-0.5784,-0.5784,0,0,-0.6091,-0.6046,-0.6046,-0.6033,-0.6,-0.599,-0.598,-0.5959,-0.5951,-0.5931,-0.5922,-0.59,-0.5887,-0.5873,-0.5853,-0.585,-0.5865,-0.5836,-0.5835,-0.5842,-0.5866,-0.5877,-0.588,-0.5852,-0.5852,-0.5853,-0.5868,0,-0.6108,-0.6089,-0.6063,-0.6053,-0.6041,-0.6011,-0.6003,-0.5983,-0.5964,-0.5951,-0.593,-0.5915,-0.5898,-0.589,-0.5886,-0.5864,-0.5869,-0.5862,-0.5844,-0.5844,-0.5852,-0.5882,-0.5894,-0.591,-0.5869,-0.587,-0.587,0,-0.6124,-0.6106,-0.6095,-0.6064,-0.6057,-0.605,-0.6029,-0.6017,-0.5993,-0.598,-0.5964,-0.5943,-0.5932,-0.5917,-0.5902,-0.5898,-0.5889,-0.5877,-0.5877,-0.5874,-0.5858,-0.5881,-0.5914,-0.5917,-0.5872,-0.5872,-0.5872,0,-0.6158,-0.613,-0.612,-0.6109,-0.6072,-0.6068,-0.6053,-0.6029,-0.6018,-0.5999,-0.5991,-0.5972,-0.5961,-0.5946,-0.592,-0.5912,-0.5908,-0.589,-0.5897,-0.5897,-0.5897,-0.5898,-0.593,-0.5891,-0.5891,-0.5891,-0.5891,0,-0.6179,-0.6174,-0.6134,-0.6128,-0.6121,-0.6092,-0.6086,-0.6068,-0.6046,-0.6036,-0.601,-0.6001,-0.5967,-0.5955,-0.5935,-0.5925,-0.592,-0.5909,-0.5904,-0.5912,-0.5913,-0.5906,-0.5904,-0.5892,-0.5892,-0.5891,-0.5891,0,-0.6216,-0.6189,-0.6176,-0.6143,-0.6134,-0.6131,-0.6102,-0.6095,-0.6075,-0.6063,-0.6058,-0.6027,-0.6011,-0.5984,-0.5959,-0.5946,-0.594,-0.5931,-0.5949,-0.5945,-0.5953,-0.5953,-0.5982,-0.5985,-0.5944,-0.5945,-0.5945,0,-0.6232,-0.6227,-0.6193,-0.6184,-0.617,-0.6156,-0.6145,-0.6115,-0.6105,-0.6077,-0.6074,-0.6056,-0.604,-0.6015,-0.599,-0.5972,-0.5962,-0.5974,-0.5959,-0.5968,-0.5963,-0.5964,-0.5963,-0.5977,-0.5978,-0.5978,-0.5979,0,-0.6262,-0.6249,-0.6234,-0.6214,-0.6201,-0.6184,-0.6165,-0.616,-0.6126,-0.6116,-0.6099,-0.6086,-0.6062,-0.6044,-0.6022,-0.6007,-0.5987,-0.5983,-0.5984,-0.5992,-0.6002,-0.5997,-0.5958,-0.5983,-0.5982,-0.5982,-0.5982,-0.5982,-0.6289,-0.6283,-0.6259,-0.6242,-0.6225,-0.6209,-0.6201,-0.618,-0.6165,-0.6143,-0.6127,-0.6111,-0.6088,-0.6056,-0.6042,-0.603,-0.6021,-0.6021,-0.6022,-0.6022,-0.6026,-0.6004,-0.6025,-0.6025,-0.6025,-0.6025,-0.6025,0,-0.6319,-0.6302,-0.6287,-0.6262,-0.6249,-0.6232,-0.6211,-0.6201,-0.6188,-0.6168,-0.6152,-0.6133,-0.6116,-0.609,-0.6071,-0.6066,-0.6057,-0.6062,-0.6063,-0.6059,-0.6034,-0.6036,-0.607,-0.607,-0.607,-0.607,-0.607,-0.607,-0.6333,-0.6323,-0.6307,-0.6288,-0.6271,-0.6255,-0.6245,-0.623,-0.6213,-0.6193,-0.6179,-0.6162,-0.614,-0.6119,-0.6102,-0.6095,-0.609,-0.6098,-0.6088,-0.6065,-0.6061,-0.6057,-0.6058,-0.6097,-0.6097,-0.6114,-0.6114,-0.6114]},{"header":{"parameterUnit":"m.s-1","parameterCategory":1,"la1":30.2991,"la2":30.254,"lo1":-89.0895,"lo2":-89.0444,"dy":0.0017,"dx":0.0017,"nx":28,"ny":28,"refTime":"2023-07-27T09:00:00:Z","depth":0,"parameterNumber":3,"parameterNumberName":"V-component_of_WINDS"},"data":[0,0,0,0,0,0,0,0,0,0,0,0,0,0,0,0,0,0,0,0,0,0,0,0,0,0,0,0,0,0,0,0,0,0,0,0,0,0,0,0,0,0,0,0,0,0,0,0,0,0,0,0,0,0,0,0,0,0,3.4838,3.4837,0,3.4801,3.4801,3.48,3.4769,3.4768,3.4768,3.4768,3.4727,3.4726,3.4725,0,0,0,0,0,0,0,0,0,0,0,0,0,3.4878,3.4878,3.4838,3.4837,3.4837,3.4801,3.4801,3.48,3.4769,3.4768,3.4768,3.4768,3.4727,3.4726,3.4725,0,0,0,0,0,0,0,0,0,0,0,0,0,3.4853,3.4877,3.4838,3.4817,3.4815,3.4801,3.4801,3.48,3.4769,3.4768,3.4768,3.4767,3.4727,3.4726,3.4725,3.4728,0,0,3.4722,3.4721,0,0,0,0,0,0,0,0,3.4854,3.4851,3.4821,3.4818,3.4816,3.4789,3.48,3.4776,3.4769,3.4786,3.4768,3.4767,3.4748,3.4745,3.4739,3.4727,3.4725,3.4722,3.4721,3.472,3.472,0,0,0,0,0,0,0,3.4856,3.4853,3.4823,3.482,3.4817,3.4809,3.4804,3.4795,3.477,3.4785,3.4782,3.4779,3.4746,3.474,3.4738,3.4724,3.4722,3.4721,3.472,3.4719,3.4713,3.4713,0,0,0,0,0,0,3.4862,3.4855,3.4824,3.4822,3.4834,3.4808,3.4804,3.4798,3.477,3.4766,3.4779,3.4777,3.4742,3.4739,3.4736,3.4738,3.472,3.4719,3.4719,3.4712,3.4713,3.4713,0,0,0,0,0,0,3.4863,3.4859,3.4826,3.4838,3.4833,3.4808,3.4802,3.4798,3.4792,3.4766,3.4761,3.4778,3.4742,3.4738,3.4731,3.4737,3.4719,3.4718,3.4711,3.4712,3.4713,3.4743,0,0,0,0,0,0,3.4864,3.486,3.4861,3.4838,3.4832,3.4822,3.4803,3.4797,3.479,3.4787,3.4763,3.4759,3.4741,3.4733,3.473,3.4735,3.4717,3.4711,3.4712,3.4713,3.4741,3.4744,3.4747,0,0,0,0,0,3.4865,3.487,3.4862,3.4858,3.4834,3.4822,3.4819,3.48,3.4791,3.4792,3.4775,3.476,3.4737,3.4732,3.4729,3.4733,3.471,3.4711,3.4713,3.474,3.4744,3.4747,0,0,0,0,0,0,3.4894,3.4867,3.4857,3.4855,3.4841,3.4817,3.4818,3.4804,3.4792,3.479,3.4765,3.476,3.4756,3.4744,3.474,3.4735,3.4721,3.4722,3.4743,3.4747,3.475,3.4753,3.4716,0,0,0,0,0,3.49,3.4894,3.487,3.4871,3.4864,3.4842,3.4837,3.4823,3.4808,3.4801,3.4784,3.4769,3.4759,3.4752,3.4741,3.4739,3.4733,3.4741,3.4744,3.4746,3.4747,3.4745,3.4748,3.4717,3.4717,3.4717,0,0,3.4912,3.4897,3.4894,3.4876,3.4864,3.4857,3.4838,3.4831,3.4826,3.48,3.4793,3.478,3.4761,3.4757,3.4754,3.4747,3.4754,3.4748,3.475,3.4749,3.4747,3.475,3.4752,3.4718,3.4718,3.4717,0,0,3.4931,3.4919,3.4918,3.4907,3.489,3.4875,3.4875,3.4853,3.4844,3.4836,3.4817,3.481,3.4792,3.4779,3.4771,3.4786,3.4771,3.4783,3.4799,3.4798,3.48,3.4802,3.4808,3.481,3.4784,3.4784,3.4784,0,3.4949,3.4939,3.4919,3.4915,3.4907,3.4884,3.4883,3.4873,3.4852,3.4847,3.4839,3.4816,3.4802,3.4795,3.4799,3.4793,3.4791,3.4786,3.4802,3.4803,3.4805,3.481,3.4812,3.4785,3.4785,3.4785,3.4785,0,3.4961,3.4955,3.4956,3.4938,3.493,3.4927,3.4906,3.4901,3.4888,3.4874,3.4867,3.4849,3.4834,3.4831,3.4818,3.4822,3.4818,3.4806,3.4792,3.481,3.4814,3.4816,3.4788,3.4787,3.4787,3.4786,0,0,3.4997,3.4969,3.4969,3.4961,3.494,3.4934,3.493,3.4917,3.4912,3.4899,3.4894,3.488,3.4869,3.486,3.4845,3.4844,3.4857,3.4832,3.4831,3.4837,3.4861,3.487,3.4872,3.4847,3.4848,3.4848,3.4862,0,3.5012,3.5005,3.4987,3.4984,3.4978,3.4957,3.4953,3.4939,3.4926,3.4918,3.4903,3.4894,3.488,3.4874,3.4872,3.4856,3.4862,3.4855,3.4842,3.4842,3.4848,3.4874,3.4884,3.4898,3.4864,3.4864,3.4864,0,3.503,3.5019,3.5016,3.4996,3.4993,3.499,3.4976,3.4969,3.4953,3.4944,3.4934,3.4918,3.4911,3.4899,3.4889,3.4885,3.4879,3.487,3.487,3.4868,3.4854,3.4873,3.4903,3.4905,3.4867,3.4866,3.4866,0,3.5056,3.5041,3.5037,3.5031,3.5007,3.5006,3.4996,3.498,3.4973,3.496,3.4956,3.4942,3.4935,3.4925,3.4906,3.4898,3.4898,3.4884,3.489,3.489,3.489,3.4891,3.4919,3.4887,3.4887,3.4887,3.4887,0,3.5075,3.5074,3.5049,3.5046,3.5045,3.5024,3.5023,3.501,3.4996,3.4991,3.4971,3.4966,3.4941,3.4933,3.4918,3.4912,3.4909,3.4901,3.4897,3.4902,3.4904,3.4898,3.4896,3.4887,3.4887,3.4887,3.4887,0,3.5104,3.5087,3.5082,3.5061,3.5055,3.5055,3.5036,3.5033,3.5019,3.5012,3.501,3.4987,3.4977,3.4957,3.494,3.493,3.4928,3.4921,3.4934,3.4931,3.4938,3.4938,3.4964,3.4966,3.4933,3.4933,3.4933,0,3.5118,3.5117,3.5096,3.5092,3.5083,3.5076,3.5069,3.5049,3.5042,3.5025,3.5023,3.5011,3.5001,3.4985,3.4967,3.4954,3.4946,3.4957,3.4944,3.495,3.4947,3.4947,3.4947,3.4959,3.496,3.496,3.496,0,3.5144,3.5136,3.5127,3.5116,3.5109,3.5099,3.5087,3.5084,3.5061,3.5055,3.5045,3.5037,3.5021,3.5009,3.4994,3.4983,3.4968,3.4965,3.4965,3.4971,3.4979,3.4975,3.4941,3.4964,3.4964,3.4963,3.4963,3.4963,3.5165,3.5164,3.5149,3.514,3.513,3.512,3.5116,3.5102,3.5094,3.508,3.5068,3.5059,3.5043,3.5021,3.5011,3.5003,3.4995,3.4996,3.4997,3.4997,3.5,3.498,3.5,3.5,3.5,3.4999,3.4999,0,3.519,3.518,3.5172,3.5158,3.5151,3.5139,3.5126,3.512,3.5113,3.51,3.5091,3.5079,3.5068,3.5049,3.5036,3.5033,3.5026,3.503,3.503,3.5028,3.5007,3.5008,3.5036,3.5036,3.5036,3.5036,3.5036,3.5036,3.5202,3.5199,3.5189,3.518,3.5169,3.5161,3.5155,3.5145,3.5135,3.5123,3.5114,3.5103,3.5087,3.5073,3.5062,3.5057,3.5053,3.506,3.5052,3.5033,3.5029,3.5026,3.5027,3.5059,3.5059,3.5074,3.5074,3.5074]}]]